| time (UTC) | temp C | wind direction | speed KPH | gust KPH | rain 1hr cm | rain 24hr cm | rain mn cm | humidity % | barometer mb |
| 20260904211616 | 21 | 225 | 3.2 | 4.8 | 0.00 | 0.20 | 0.13 | 38 | 1014.8 |
| 20260904210616 | 20 | 270 | 4.8 | 8.0 | 0.00 | 0.20 | 0.13 | 43 | 1014.7 |
| 20260904205616 | 20 | 248 | 8.0 | 11.3 | 0.00 | 0.20 | 0.13 | 43 | 1014.7 |
| 20260904204616 | 20 | 225 | 3.2 | 4.8 | 0.00 | 0.20 | 0.13 | 41 | 1014.7 |
| 20260904203616 | 20 | 293 | 4.8 | 6.4 | 0.00 | 0.20 | 0.13 | 40 | 1014.6 |
| 20260904202616 | 21 | 293 | 6.4 | 8.0 | 0.00 | 0.20 | 0.13 | 41 | 1014.7 |
| 20260904201616 | 20 | 338 | 4.8 | 6.4 | 0.00 | 0.20 | 0.13 | 44 | 1014.8 |
| 20260904200616 | 20 | 338 | 4.8 | 8.0 | 0.00 | 0.20 | 0.13 | 44 | 1014.9 |
| 20260904195616 | 20 | 0 | 1.6 | 3.2 | 0.00 | 0.20 | 0.13 | 43 | 1015.0 |
| 20260904194616 | 20 | 293 | 4.8 | 6.4 | 0.00 | 0.20 | 0.13 | 44 | 1015.1 |
| 20260904193616 | 20 | 338 | 4.8 | 6.4 | 0.00 | 0.20 | 0.13 | 51 | 1015.1 |
| 20260904192636 | 18 | 270 | 1.6 | 4.8 | 0.00 | 0.20 | 0.13 | 48 | 1015.1 |
| 20260904191616 | 19 | 315 | 3.2 | 4.8 | 0.00 | 0.20 | 0.13 | 49 | 1015.3 |
| 20260904190616 | 19 | 338 | 1.6 | 3.2 | 0.00 | 0.20 | 0.13 | 55 | 1015.5 |
| 20260904185616 | 19 | 315 | 1.6 | 3.2 | 0.00 | 0.25 | 0.13 | 55 | 1015.4 |
| 20260904184616 | 18 | 315 | 3.2 | 3.2 | 0.00 | 0.46 | 0.13 | 60 | 1015.4 |
| 20260904183636 | 17 | 0.0 | 1.6 | 0.00 | 0.46 | 0.13 | 60 | 1015.3 | |
| 20260904182616 | 17 | 293 | 1.6 | 3.2 | 0.00 | 0.46 | 0.13 | 64 | 1015.3 |
| 20260904181616 | 17 | 113 | 3.2 | 4.8 | 0.00 | 0.46 | 0.13 | 60 | 1015.3 |
| 20260904180616 | 16 | 0 | 1.6 | 3.2 | 0.00 | 0.46 | 0.13 | 68 | 1015.2 |
| 20260904175616 | 16 | 68 | 1.6 | 3.2 | 0.00 | 0.46 | 0.13 | 68 | 1015.1 |
| 20260904174616 | 15 | 90 | 3.2 | 4.8 | 0.00 | 0.46 | 0.13 | 66 | 1015.1 |
| 20260904173615 | 15 | 158 | 1.6 | 3.2 | 0.00 | 0.46 | 0.13 | 68 | 1015.0 |
| 20260904172616 | 15 | 158 | 1.6 | 3.2 | 0.00 | 0.46 | 0.13 | 69 | 1014.9 |
| 20260904171635 | 15 | 135 | 3.2 | 4.8 | 0.00 | 0.46 | 0.13 | 70 | 1014.9 |
| 20260904170615 | 15 | 180 | 4.8 | 8.0 | 0.00 | 0.46 | 0.13 | 69 | 1014.9 |
| 20260904165635 | 15 | 113 | 3.2 | 6.4 | 0.00 | 0.46 | 0.13 | 71 | 1014.8 |
| 20260904164616 | 14 | 135 | 1.6 | 4.8 | 0.00 | 0.46 | 0.13 | 73 | 1014.7 |
| 20260904163616 | 13 | 113 | 3.2 | 3.2 | 0.00 | 0.46 | 0.13 | 76 | 1014.6 |
| 20260904162616 | 13 | 158 | 3.2 | 4.8 | 0.00 | 0.46 | 0.13 | 80 | 1014.6 |
| 20260904161616 | 12 | 135 | 4.8 | 6.4 | 0.00 | 0.51 | 0.13 | 80 | 1014.5 |
| 20260904160635 | 12 | 135 | 9.7 | 12.9 | 0.00 | 0.56 | 0.13 | 83 | 1014.6 |
| 20260904155616 | 12 | 135 | 8.0 | 12.9 | 0.00 | 0.58 | 0.13 | 83 | 1014.6 |
| 20260904154615 | 11 | 158 | 4.8 | 6.4 | 0.00 | 0.61 | 0.13 | 83 | 1014.5 |
| 20260904153615 | 11 | 135 | 4.8 | 6.4 | 0.00 | 0.61 | 0.13 | 83 | 1014.4 |
| 20260904152635 | 11 | 113 | 3.2 | 4.8 | 0.00 | 0.61 | 0.13 | 83 | 1014.3 |
| 20260904151615 | 11 | 113 | 4.8 | 6.4 | 0.00 | 0.61 | 0.13 | 84 | 1014.2 |
| 20260904150615 | 11 | 135 | 1.6 | 3.2 | 0.00 | 0.64 | 0.13 | 84 | 1014.2 |
| 20260904145615 | 11 | 158 | 1.6 | 3.2 | 0.03 | 0.64 | 0.13 | 84 | 1014.1 |
| 20260904144615 | 11 | 135 | 4.8 | 6.4 | 0.03 | 0.66 | 0.13 | 83 | 1014.1 |
| 20260904143615 | 11 | 135 | 6.4 | 8.0 | 0.03 | 0.71 | 0.13 | 84 | 1014.1 |
| 20260904142615 | 11 | 135 | 1.6 | 3.2 | 0.03 | 0.74 | 0.13 | 83 | 1013.9 |
| 20260904141635 | 11 | 135 | 3.2 | 4.8 | 0.03 | 0.74 | 0.13 | 83 | 1013.8 |
| 20260904140615 | 11 | 158 | 3.2 | 6.4 | 0.03 | 0.74 | 0.13 | 83 | 1013.6 |
| 20260904135616 | 11 | 0.0 | 0.0 | 0.03 | 0.76 | 0.10 | 83 | 1013.4 | |
| 20260904134615 | 11 | 158 | 3.2 | 6.4 | 0.03 | 0.81 | 0.10 | 83 | 1013.5 |
| 20260904133615 | 10 | 158 | 6.4 | 8.0 | 0.03 | 0.81 | 0.10 | 83 | 1013.5 |
| 20260904132615 | 10 | 180 | 4.8 | 8.0 | 0.05 | 0.81 | 0.10 | 83 | 1013.4 |
| 20260904131615 | 10 | 135 | 3.2 | 4.8 | 0.08 | 0.84 | 0.10 | 83 | 1013.1 |
| 20260904130615 | 10 | 90 | 1.6 | 4.8 | 0.10 | 0.84 | 0.10 | 83 | 1012.9 |
| 20260904125657 | 10 | 135 | 3.2 | 4.8 | 0.08 | 0.81 | 0.08 | 83 | 1012.8 |
| 20260904124617 | 11 | 90 | 3.2 | 4.8 | 0.08 | 0.81 | 0.08 | 83 | 1012.8 |
| 20260904123617 | 11 | 90 | 1.6 | 1.6 | 0.08 | 0.81 | 0.08 | 83 | 1012.8 |
| 20260904122617 | 11 | 158 | 1.6 | 3.2 | 0.05 | 0.79 | 0.05 | 83 | 1012.9 |
| 20260904121617 | 11 | 135 | 3.2 | 4.8 | 0.03 | 0.76 | 0.03 | 83 | 1012.9 |
| 20260904120637 | 11 | 135 | 8.0 | 14.5 | 0.00 | 0.74 | 0.00 | 83 | 1012.9 |
| 20260904115617 | 11 | 158 | 8.0 | 12.9 | 0.00 | 0.74 | 0.00 | 83 | 1012.9 |
| 20260904114617 | 11 | 135 | 9.7 | 14.5 | 0.00 | 0.74 | 0.00 | 83 | 1012.8 |
| 20260904113617 | 11 | 158 | 6.4 | 8.0 | 0.00 | 0.74 | 0.00 | 82 | 1012.7 |
| 20260904112615 | 11 | 135 | 4.8 | 6.4 | 0.00 | 0.74 | 0.00 | 81 | 1012.6 |
| 20260904111617 | 11 | 135 | 9.7 | 14.5 | 0.00 | 0.74 | 0.00 | 81 | 1012.6 |
| 20260904110617 | 11 | 135 | 11.3 | 16.1 | 0.00 | 0.74 | 0.00 | 80 | 1012.5 |
| 20260904105638 | 11 | 135 | 4.8 | 6.4 | 0.00 | 0.74 | 0.00 | 80 | 1012.4 |
| 20260904104617 | 11 | 135 | 6.4 | 9.7 | 0.00 | 0.74 | 0.00 | 80 | 1012.3 |
| 20260904103617 | 11 | 135 | 6.4 | 8.0 | 0.00 | 0.74 | 0.00 | 81 | 1012.3 |
| 20260904102637 | 11 | 135 | 6.4 | 9.7 | 0.00 | 0.74 | 0.00 | 81 | 1012.3 |
| 20260904101617 | 11 | 113 | 3.2 | 4.8 | 0.00 | 0.74 | 0.00 | 81 | 1012.1 |
| 20260904100617 | 11 | 135 | 4.8 | 4.8 | 0.00 | 0.74 | 0.00 | 81 | 1012.2 |
| 20260904095617 | 11 | 135 | 3.2 | 3.2 | 0.00 | 0.74 | 0.00 | 80 | 1012.2 |
| 20260904094617 | 11 | 135 | 6.4 | 8.0 | 0.00 | 0.74 | 0.00 | 79 | 1012.1 |
| 20260904093617 | 11 | 135 | 8.0 | 11.3 | 0.00 | 0.74 | 0.00 | 78 | 1012.1 |
| 20260904092616 | 11 | 135 | 3.2 | 4.8 | 0.00 | 0.74 | 0.00 | 78 | 1011.9 |
| 20260904091637 | 11 | 158 | 4.8 | 6.4 | 0.00 | 0.74 | 0.00 | 78 | 1011.9 |
| 20260904090616 | 11 | 135 | 3.2 | 4.8 | 0.00 | 0.74 | 0.00 | 78 | 1012.0 |
| 20260904085617 | 11 | 158 | 4.8 | 8.0 | 0.00 | 0.74 | 0.00 | 78 | 1012.1 |
| 20260904084617 | 11 | 135 | 3.2 | 4.8 | 0.00 | 0.74 | 0.00 | 78 | 1012.0 |
| 20260904083616 | 11 | 135 | 6.4 | 8.0 | 0.00 | 0.74 | 0.00 | 78 | 1012.0 |
| 20260904082617 | 11 | 158 | 3.2 | 4.8 | 0.00 | 0.74 | 0.00 | 78 | 1012.0 |
| 20260904081637 | 11 | 90 | 3.2 | 4.8 | 0.00 | 0.74 | 0.00 | 78 | 1011.9 |
| 20260904080616 | 11 | 90 | 1.6 | 4.8 | 0.00 | 0.76 | 0.00 | 78 | 1011.9 |
| 20260904075617 | 11 | 90 | 4.8 | 6.4 | 0.00 | 0.76 | 0.00 | 78 | 1011.9 |
| 20260904074616 | 11 | 90 | 4.8 | 6.4 | 0.00 | 0.76 | 0.00 | 78 | 1012.0 |
| 20260904073617 | 11 | 90 | 3.2 | 6.4 | 0.00 | 0.76 | 0.00 | 79 | 1012.1 |
| 20260904072617 | 11 | 90 | 4.8 | 9.7 | 0.00 | 0.76 | 0.00 | 79 | 1012.0 |
| 20260904065615 | 11 | 113 | 3.2 | 9.7 | 0.00 | 0.76 | 0.76 | 80 | 1012.1 |
| 20260904064615 | 11 | 113 | 3.2 | 4.8 | 0.00 | 0.76 | 0.76 | 79 | 1012.1 |
| 20260904063617 | 12 | 90 | 3.2 | 4.8 | 0.00 | 0.79 | 0.76 | 80 | 1012.2 |
| 20260904062617 | 12 | 113 | 3.2 | 4.8 | 0.00 | 0.79 | 0.76 | 80 | 1012.2 |
| 20260904061617 | 12 | 0.0 | 1.6 | 0.00 | 0.79 | 0.76 | 80 | 1012.2 | |
| 20260904060617 | 12 | 113 | 1.6 | 3.2 | 0.00 | 0.79 | 0.76 | 80 | 1012.2 |
| 20260904055637 | 12 | 135 | 3.2 | 4.8 | 0.00 | 0.79 | 0.76 | 80 | 1012.1 |
| 20260904054617 | 12 | 135 | 4.8 | 6.4 | 0.00 | 0.79 | 0.76 | 79 | 1012.3 |
| 20260904053617 | 12 | 135 | 3.2 | 3.2 | 0.00 | 0.79 | 0.76 | 78 | 1012.3 |
| 20260904052617 | 12 | 135 | 1.6 | 1.6 | 0.00 | 0.79 | 0.76 | 78 | 1012.2 |
| 20260904051617 | 12 | 158 | 3.2 | 4.8 | 0.00 | 0.79 | 0.76 | 77 | 1012.2 |
| 20260904050637 | 12 | 113 | 1.6 | 3.2 | 0.00 | 0.79 | 0.76 | 77 | 1012.2 |
| 20260904045617 | 12 | 158 | 3.2 | 4.8 | 0.00 | 0.79 | 0.76 | 76 | 1012.1 |
| 20260904044617 | 12 | 135 | 4.8 | 6.4 | 0.00 | 0.79 | 0.76 | 76 | 1012.0 |
| 20260904043617 | 12 | 135 | 3.2 | 4.8 | 0.00 | 0.79 | 0.76 | 76 | 1012.1 |
| 20260904042617 | 12 | 135 | 3.2 | 4.8 | 0.00 | 0.79 | 0.76 | 76 | 1012.1 |
| 20260904041617 | 12 | 135 | 3.2 | 4.8 | 0.00 | 0.79 | 0.76 | 76 | 1012.1 |
| 20260904040617 | 12 | 135 | 3.2 | 4.8 | 0.00 | 0.79 | 0.76 | 76 | 1012.1 |
| 20260904035617 | 12 | 90 | 1.6 | 3.2 | 0.00 | 0.79 | 0.76 | 76 | 1012.1 |
| 20260904034657 | 12 | 68 | 3.2 | 4.8 | 0.00 | 0.79 | 0.76 | 76 | 1012.0 |
| 20260904033617 | 12 | 90 | 3.2 | 6.4 | 0.00 | 0.79 | 0.76 | 76 | 1011.9 |
| 20260904032636 | 12 | 90 | 3.2 | 4.8 | 0.00 | 0.79 | 0.76 | 76 | 1011.7 |
| 20260904031617 | 12 | 90 | 1.6 | 4.8 | 0.00 | 0.79 | 0.76 | 76 | 1011.7 |
| 20260904030637 | 12 | 90 | 1.6 | 4.8 | 0.00 | 0.79 | 0.76 | 76 | 1011.6 |
| 20260904025636 | 12 | 90 | 1.6 | 3.2 | 0.00 | 0.79 | 0.76 | 76 | 1011.6 |
| 20260904024616 | 12 | 113 | 1.6 | 3.2 | 0.00 | 0.79 | 0.76 | 76 | 1011.6 |
| 20260904023637 | 12 | 90 | 1.6 | 1.6 | 0.00 | 0.79 | 0.76 | 76 | 1011.5 |
| 20260904022616 | 12 | 113 | 1.6 | 6.4 | 0.00 | 0.79 | 0.76 | 76 | 1011.4 |
| 20260904021616 | 12 | 90 | 3.2 | 3.2 | 0.00 | 0.79 | 0.76 | 76 | 1011.4 |
| 20260904020657 | 12 | 90 | 3.2 | 4.8 | 0.00 | 0.79 | 0.76 | 76 | 1011.5 |
| 20260904015616 | 12 | 135 | 3.2 | 4.8 | 0.00 | 0.79 | 0.76 | 76 | 1011.5 |
| 20260904014616 | 12 | 113 | 3.2 | 3.2 | 0.00 | 0.79 | 0.76 | 76 | 1011.5 |
| 20260904013616 | 12 | 113 | 3.2 | 4.8 | 0.00 | 0.79 | 0.76 | 75 | 1011.6 |
| 20260904012616 | 12 | 90 | 3.2 | 4.8 | 0.00 | 0.79 | 0.76 | 75 | 1011.7 |
| 20260904011637 | 12 | 90 | 1.6 | 4.8 | 0.00 | 0.79 | 0.76 | 75 | 1011.8 |
| 20260904010617 | 12 | 113 | 1.6 | 4.8 | 0.00 | 0.79 | 0.76 | 75 | 1011.7 |
| 20260904005617 | 13 | 0.0 | 1.6 | 0.00 | 0.79 | 0.76 | 75 | 1011.7 | |
| 20260904004616 | 13 | 0.0 | 1.6 | 0.00 | 0.81 | 0.76 | 76 | 1011.9 | |
| 20260904003616 | 13 | 0.0 | 1.6 | 0.03 | 0.81 | 0.76 | 76 | 1011.9 | |
| 20260904002616 | 13 | 68 | 1.6 | 3.2 | 0.05 | 0.81 | 0.76 | 75 | 1011.9 |
| 20260904001616 | 13 | 0.0 | 1.6 | 0.08 | 0.81 | 0.76 | 76 | 1011.8 | |
| 20260904000616 | 13 | 135 | 1.6 | 3.2 | 0.08 | 0.81 | 0.76 | 75 | 1011.9 |
| 20260903235616 | 13 | 0.0 | 1.6 | 0.08 | 0.81 | 0.76 | 74 | 1011.8 | |
| 20260903234616 | 13 | 0.0 | 1.6 | 0.08 | 0.81 | 0.76 | 73 | 1011.8 | |
| 20260903233616 | 14 | 248 | 1.6 | 3.2 | 0.05 | 0.79 | 0.74 | 71 | 1011.9 |
| 20260903232617 | 15 | 225 | 3.2 | 6.4 | 0.03 | 0.76 | 0.71 | 68 | 1011.8 |
| 20260903231616 | 16 | 270 | 8.0 | 12.9 | 0.00 | 0.76 | 0.69 | 62 | 1011.8 |
| 20260903230637 | 16 | 315 | 3.2 | 4.8 | 0.00 | 0.79 | 0.69 | 62 | 1011.7 |
| 20260903225636 | 16 | 248 | 3.2 | 3.2 | 0.00 | 0.84 | 0.69 | 62 | 1011.8 |
| 20260903224617 | 16 | 0.0 | 0.0 | 0.00 | 0.84 | 0.69 | 65 | 1011.8 | |
| 20260903223656 | 16 | 248 | 1.6 | 3.2 | 0.00 | 0.84 | 0.69 | 62 | 1011.9 |
| 20260903222616 | 16 | 135 | 3.2 | 4.8 | 0.00 | 0.84 | 0.69 | 63 | 1011.9 |
| 20260903221616 | 15 | 135 | 1.6 | 4.8 | 0.00 | 0.84 | 0.69 | 64 | 1012.0 |
| 20260903220616 | 15 | 180 | 3.2 | 8.0 | 0.00 | 0.84 | 0.69 | 65 | 1012.0 |
| 20260903215616 | 15 | 203 | 4.8 | 6.4 | 0.00 | 0.84 | 0.69 | 64 | 1012.0 |
| 20260903214616 | 15 | 180 | 6.4 | 9.7 | 0.00 | 0.86 | 0.69 | 64 | 1012.0 |
| 20260903213616 | 15 | 158 | 3.2 | 6.4 | 0.00 | 0.86 | 0.69 | 68 | 1012.1 |
| 20260903212616 | 15 | 203 | 3.2 | 8.0 | 0.00 | 0.86 | 0.69 | 66 | 1012.1 |